User: anonymous   Login
Location: Kuppenheim
(48.8299°N, 8.2568°E)
Time: 12:06:37
(UTC+00:00)
Language:

IDEFIX/ARIANE 42P - Orbit

View from above orbital plane
View from above orbital plane
View from above satellite
View from above satellite

Ground track
Ground track

The orbit data is extracted from the following two-line orbital elements,

1 27422U 02021B   21265.62248406  .00000011  00000-0  20939-4 0  9999
2 27422  98.4111 215.2053 0011370 311.0336  48.9863 14.29331302 11198
Epoch (UTC): 22 September 2021 14:56:22
Eccentricity: 0.0011370
inclination: 98.4111°
perigee height: 786 km
apogee height: 802 km
right ascension of ascending node: 215.2053°
argument of perigee: 311.0336°
revolutions per day: 14.29331302
mean anomaly at epoch: 48.9863°
orbit number at epoch: 1119

The dashed part of the orbit path shows where the satellite is in the earth's shadow,  

DLR